Time,TemperatureF,DewpointF,PressureIn,WindDirection,WindDirectionDegrees,WindSpeedMPH,WindSpeedGustMPH,Humidity,HourlyPrecipIn,Conditions,Clouds,dailyrainin,SoftwareType,DateUTC
2013-04-20 00:03:00,54.0,53.0,29.71,SSW,207,13.0,18.0,97,0.00,,,-99.99,,2013-04-20 04:03:00,
2013-04-20 00:12:00,54.0,53.0,29.71,SSW,207,13.0,18.0,97,0.00,,,-99.99,,2013-04-20 04:12:00,
2013-04-20 00:23:00,54.0,53.0,29.71,WSW,258,10.0,17.0,97,0.00,,,-99.99,,2013-04-20 04:23:00,
2013-04-20 00:33:00,54.0,54.0,29.70,WSW,251,0.0,16.0,100,0.00,,,-99.99,,2013-04-20 04:33:00,
2013-04-20 00:42:00,54.0,54.0,29.70,WSW,251,0.0,16.0,100,0.00,,,-99.99,,2013-04-20 04:42:00,
2013-04-20 00:52:00,53.0,52.0,29.70,West,275,3.0,15.0,98,0.00,,,-99.99,,2013-04-20 04:52:00,
2013-04-20 01:02:00,53.0,52.0,29.69,WSW,254,2.0,15.0,98,0.00,,,-99.99,,2013-04-20 05:02:00,
2013-04-20 01:12:00,53.0,52.0,29.69,WSW,254,2.0,15.0,98,0.00,,,-99.99,,2013-04-20 05:12:00,
2013-04-20 01:22:00,54.0,53.0,29.69,WSW,255,8.0,15.0,98,0.00,,,-99.99,,2013-04-20 05:22:00,
2013-04-20 01:32:00,54.0,53.0,29.68,SW,229,5.0,19.0,98,0.00,,,-99.99,,2013-04-20 05:32:00,
2013-04-20 01:43:00,54.0,53.0,29.68,SW,229,5.0,19.0,98,0.00,,,-99.99,,2013-04-20 05:43:00,
2013-04-20 01:52:00,54.0,53.0,29.67,SSW,201,5.0,15.0,98,0.00,,,-99.99,,2013-04-20 05:52:00,
2013-04-20 02:02:00,54.0,53.0,29.67,West,270,2.0,9.0,98,0.00,,,-99.99,,2013-04-20 06:02:00,
2013-04-20 02:12:00,54.0,53.0,29.67,West,270,2.0,9.0,98,0.00,,,-99.99,,2013-04-20 06:12:00,
2013-04-20 02:21:00,54.0,53.0,29.66,SW,217,6.0,9.0,98,0.00,,,-99.99,,2013-04-20 06:21:00,
2013-04-20 02:32:00,54.0,53.0,29.66,South,182,5.0,13.0,98,0.00,,,-99.99,,2013-04-20 06:32:00,
2013-04-20 02:42:00,54.0,53.0,29.66,South,182,5.0,13.0,98,0.00,,,-99.99,,2013-04-20 06:42:00,
2013-04-20 02:52:00,54.0,53.0,29.65,South,178,5.0,18.0,98,0.08,,,-99.99,,2013-04-20 06:52:00,
2013-04-20 03:01:00,54.0,53.0,29.64,SSW,207,7.0,16.0,98,0.05,,,-99.99,,2013-04-20 07:01:00,
2013-04-20 03:11:00,54.0,53.0,29.64,SSW,207,7.0,16.0,98,0.05,,,-99.99,,2013-04-20 07:11:00,
2013-04-20 03:22:00,53.0,52.0,29.64,WSW,247,2.0,16.0,98,0.04,,,-99.99,,2013-04-20 07:22:00,
2013-04-20 03:32:00,54.0,53.0,29.63,SW,214,6.0,14.0,98,0.00,,,-99.99,,2013-04-20 07:32:00,
2013-04-20 03:42:00,54.0,53.0,29.63,SSW,199,11.0,13.0,98,0.00,,,-99.99,,2013-04-20 07:42:00,
2013-04-20 03:52:00,54.0,53.0,29.63,SSW,199,11.0,13.0,98,0.00,,,-99.99,,2013-04-20 07:52:00,
2013-04-20 04:02:00,53.0,52.0,29.62,WSW,244,6.0,19.0,98,0.00,,,-99.99,,2013-04-20 08:02:00,
2013-04-20 04:11:00,53.0,52.0,29.62,WSW,244,6.0,19.0,98,0.00,,,-99.99,,2013-04-20 08:11:00,
2013-04-20 04:21:00,53.0,52.0,29.62,SSW,195,4.0,19.0,98,0.04,,,-99.99,,2013-04-20 08:21:00,
2013-04-20 04:32:00,53.0,52.0,29.61,WSW,245,2.0,13.0,98,0.00,,,-99.99,,2013-04-20 08:32:00,
2013-04-20 04:42:00,53.0,52.0,29.61,WSW,245,2.0,13.0,98,0.00,,,-99.99,,2013-04-20 08:42:00,
2013-04-20 04:52:00,53.0,52.0,29.60,WSW,247,2.0,14.0,98,0.08,,,-99.99,,2013-04-20 08:52:00,
2013-04-20 05:02:00,53.0,52.0,29.59,South,180,2.0,10.0,98,0.00,,,-99.99,,2013-04-20 09:02:00,
2013-04-20 05:12:00,53.0,52.0,29.59,South,180,2.0,10.0,98,0.00,,,-99.99,,2013-04-20 09:12:00,
2013-04-20 05:21:00,52.0,51.0,29.60,SSW,210,6.0,19.0,98,0.00,,,-99.99,,2013-04-20 09:21:00,
2013-04-20 05:33:00,52.0,51.0,29.60,WSW,249,1.0,15.0,98,0.00,,,-99.99,,2013-04-20 09:33:00,
2013-04-20 05:43:00,52.0,51.0,29.60,WSW,249,1.0,15.0,98,0.00,,,-99.99,,2013-04-20 09:43:00,
2013-04-20 05:53:00,53.0,52.0,29.60,NW,306,1.0,12.0,98,0.00,,,-99.99,,2013-04-20 09:53:00,
2013-04-20 06:03:00,52.0,51.0,29.60,SW,236,5.0,18.0,98,0.00,,,-99.99,,2013-04-20 10:03:00,
2013-04-20 06:13:00,52.0,51.0,29.60,SW,236,5.0,18.0,98,0.00,,,-99.99,,2013-04-20 10:13:00,
2013-04-20 06:23:00,52.0,51.0,29.60,SW,228,4.0,16.0,98,0.04,,,-99.99,,2013-04-20 10:23:00,
2013-04-20 06:33:00,53.0,52.0,29.61,SSE,167,3.0,15.0,98,0.00,,,-99.99,,2013-04-20 10:33:00,
2013-04-20 06:42:00,53.0,52.0,29.61,SSE,167,3.0,15.0,98,0.00,,,-99.99,,2013-04-20 10:42:00,
2013-04-20 06:52:00,52.0,51.0,29.60,WSW,243,5.0,18.0,98,0.00,,,-99.99,,2013-04-20 10:52:00,
2013-04-20 07:02:00,52.0,51.0,29.61,South,180,4.0,15.0,98,0.04,,,-99.99,,2013-04-20 11:02:00,
2013-04-20 07:12:00,52.0,51.0,29.61,SW,222,2.0,13.0,98,0.00,,,-99.99,,2013-04-20 11:12:00,
2013-04-20 07:23:00,52.0,51.0,29.61,SW,222,2.0,13.0,98,0.00,,,-99.99,,2013-04-20 11:23:00,
2013-04-20 07:32:00,52.0,51.0,29.60,WSW,253,5.0,15.0,98,0.06,,,-99.99,,2013-04-20 11:32:00,
2013-04-20 07:42:00,52.0,51.0,29.60,WSW,253,5.0,15.0,98,0.06,,,-99.99,,2013-04-20 11:42:00,
2013-04-20 07:53:00,52.0,51.0,29.60,SSW,209,6.0,14.0,98,0.05,,,-99.99,,2013-04-20 11:53:00,
2013-04-20 08:02:00,52.0,51.0,29.61,South,189,4.0,12.0,98,0.09,,,-99.99,,2013-04-20 12:02:00,
2013-04-20 08:11:00,52.0,51.0,29.61,South,189,4.0,12.0,98,0.09,,,-99.99,,2013-04-20 12:11:00,
2013-04-20 08:22:00,52.0,51.0,29.61,WSW,255,1.0,13.0,98,0.05,,,-99.99,,2013-04-20 12:22:00,
2013-04-20 08:32:00,52.0,51.0,29.62,WSW,239,4.0,15.0,98,0.08,,,-99.99,,2013-04-20 12:32:00,
2013-04-20 08:42:00,52.0,51.0,29.62,WSW,239,4.0,15.0,98,0.08,,,-99.99,,2013-04-20 12:42:00,
2013-04-20 08:52:00,52.0,51.0,29.60,SSW,198,0.0,7.0,98,0.08,,,-99.99,,2013-04-20 12:52:00,
2013-04-20 09:02:00,52.0,51.0,29.61,South,178,0.0,6.0,98,0.00,,,-99.99,,2013-04-20 13:02:00,
2013-04-20 09:11:00,51.0,50.0,29.62,South,187,2.0,5.0,97,0.00,,,-99.99,,2013-04-20 13:11:00,
2013-04-20 09:21:00,51.0,50.0,29.62,South,187,2.0,5.0,97,0.00,,,-99.99,,2013-04-20 13:21:00,
2013-04-20 09:32:00,50.0,49.0,29.63,SW,219,0.0,7.0,98,0.00,,,-99.99,,2013-04-20 13:32:00,
2013-04-20 09:42:00,50.0,49.0,29.63,SW,219,0.0,7.0,98,0.00,,,-99.99,,2013-04-20 13:42:00,
2013-04-20 09:52:00,51.0,50.0,29.65,West,264,0.0,3.0,98,0.05,,,-99.99,,2013-04-20 13:52:00,
2013-04-20 10:02:00,51.0,50.0,29.64,NNW,332,11.0,13.0,98,0.04,,,-99.99,,2013-04-20 14:02:00,
2013-04-20 10:11:00,51.0,50.0,29.64,NNW,332,11.0,13.0,98,0.04,,,-99.99,,2013-04-20 14:11:00,
2013-04-20 10:21:00,51.0,50.0,29.65,NNW,332,8.0,11.0,97,0.05,,,-99.99,,2013-04-20 14:21:00,
2013-04-20 10:32:00,51.0,50.0,29.67,NW,313,5.0,11.0,97,0.00,,,-99.99,,2013-04-20 14:32:00,
2013-04-20 10:42:00,51.0,50.0,29.67,NW,313,5.0,11.0,97,0.00,,,-99.99,,2013-04-20 14:42:00,
2013-04-20 10:52:00,51.0,50.0,29.67,NW,306,4.0,11.0,97,0.08,,,-99.99,,2013-04-20 14:52:00,
2013-04-20 11:01:00,51.0,50.0,29.65,NNW,336,2.0,8.0,96,0.00,,,-99.99,,2013-04-20 15:01:00,
2013-04-20 11:12:00,51.0,50.0,29.65,NNW,336,2.0,8.0,96,0.00,,,-99.99,,2013-04-20 15:12:00,
2013-04-20 11:21:00,50.0,49.0,29.68,NW,322,6.0,13.0,95,0.04,,,-99.99,,2013-04-20 15:21:00,
2013-04-20 11:33:00,50.0,49.0,29.68,NW,309,2.0,13.0,95,0.00,,,-99.99,,2013-04-20 15:33:00,
2013-04-20 11:43:00,50.0,49.0,29.68,NW,309,2.0,13.0,95,0.00,,,-99.99,,2013-04-20 15:43:00,
2013-04-20 11:53:00,49.0,47.0,29.68,NW,326,3.0,13.0,94,0.00,,,-99.99,,2013-04-20 15:53:00,
2013-04-20 12:03:00,49.0,47.0,29.69,NW,320,5.0,12.0,94,0.00,,,-99.99,,2013-04-20 16:03:00,
2013-04-20 12:12:00,49.0,47.0,29.70,WNW,295,6.0,11.0,93,0.00,,,-99.99,,2013-04-20 16:12:00,
2013-04-20 12:23:00,49.0,47.0,29.70,WNW,295,6.0,11.0,93,0.00,,,-99.99,,2013-04-20 16:23:00,
2013-04-20 12:33:00,48.0,46.0,29.72,NW,322,5.0,14.0,92,0.00,,,-99.99,,2013-04-20 16:33:00,
2013-04-20 12:42:00,48.0,46.0,29.72,NW,322,5.0,14.0,92,0.00,,,-99.99,,2013-04-20 16:42:00,
2013-04-20 12:52:00,47.0,45.0,29.74,WNW,291,5.0,11.0,92,0.00,,,-99.99,,2013-04-20 16:52:00,
2013-04-20 13:02:00,46.0,44.0,29.74,NW,326,5.0,10.0,93,0.00,,,-99.99,,2013-04-20 17:02:00,
2013-04-20 13:12:00,46.0,44.0,29.74,NW,326,5.0,10.0,93,0.00,,,-99.99,,2013-04-20 17:12:00,
2013-04-20 13:23:00,46.0,44.0,29.75,WNW,282,3.0,9.0,94,0.00,,,-99.99,,2013-04-20 17:23:00,
2013-04-20 13:33:00,47.0,45.0,29.74,WNW,295,4.0,6.0,94,0.00,,,-99.99,,2013-04-20 17:33:00,
2013-04-20 13:42:00,47.0,45.0,29.74,WNW,295,4.0,6.0,94,0.00,,,-99.99,,2013-04-20 17:42:00,
2013-04-20 13:52:00,47.0,45.0,29.74,WNW,298,4.0,7.0,94,0.00,,,-99.99,,2013-04-20 17:52:00,
2013-04-20 14:02:00,48.0,45.0,29.75,NW,308,2.0,6.0,89,0.00,,,-99.99,,2013-04-20 18:02:00,
2013-04-20 14:12:00,49.0,45.0,29.75,NNW,330,0.0,8.0,87,0.00,,,-99.99,,2013-04-20 18:12:00,
2013-04-20 14:22:00,49.0,45.0,29.75,NNW,330,0.0,8.0,87,0.00,,,-99.99,,2013-04-20 18:22:00,
2013-04-20 14:32:00,50.0,46.0,29.75,NW,309,2.0,8.0,86,0.00,,,-99.99,,2013-04-20 18:32:00,
2013-04-20 14:42:00,50.0,46.0,29.75,NW,309,2.0,8.0,86,0.00,,,-99.99,,2013-04-20 18:42:00,
2013-04-20 14:52:00,52.0,46.0,29.75,WNW,282,3.0,10.0,80,0.00,,,-99.99,,2013-04-20 18:52:00,
2013-04-20 15:02:00,52.0,44.0,29.76,West,261,0.0,8.0,74,0.00,,,-99.99,,2013-04-20 19:02:00,
2013-04-20 15:11:00,52.0,43.0,29.75,NW,304,6.0,9.0,72,0.00,,,-99.99,,2013-04-20 19:11:00,
2013-04-20 15:21:00,52.0,43.0,29.75,NW,304,6.0,9.0,72,0.00,,,-99.99,,2013-04-20 19:21:00,
2013-04-20 15:32:00,55.0,44.0,29.75,West,259,0.0,14.0,66,0.00,,,-99.99,,2013-04-20 19:32:00,
2013-04-20 15:42:00,55.0,43.0,29.76,NW,326,2.0,11.0,63,0.00,,,-99.99,,2013-04-20 19:42:00,
2013-04-20 15:52:00,55.0,43.0,29.76,NW,326,2.0,11.0,63,0.00,,,-99.99,,2013-04-20 19:52:00,
2013-04-20 16:02:00,55.0,42.0,29.76,WNW,298,1.0,7.0,62,0.00,,,-99.99,,2013-04-20 20:02:00,
2013-04-20 16:12:00,56.0,45.0,29.77,SW,217,0.0,11.0,66,0.00,,,-99.99,,2013-04-20 20:12:00,
2013-04-20 16:22:00,56.0,45.0,29.77,SW,217,0.0,11.0,66,0.00,,,-99.99,,2013-04-20 20:22:00,
2013-04-20 16:32:00,55.0,43.0,29.78,SW,230,0.0,13.0,65,0.00,,,-99.99,,2013-04-20 20:32:00,
2013-04-20 16:42:00,55.0,43.0,29.78,SW,230,0.0,13.0,65,0.00,,,-99.99,,2013-04-20 20:42:00,
2013-04-20 16:52:00,54.0,42.0,29.79,South,174,0.0,7.0,64,0.00,,,-99.99,,2013-04-20 20:52:00,
2013-04-20 17:01:00,54.0,44.0,29.80,SSW,205,0.0,8.0,68,0.00,,,-99.99,,2013-04-20 21:01:00,
2013-04-20 17:12:00,54.0,44.0,29.80,SSW,205,0.0,8.0,68,0.00,,,-99.99,,2013-04-20 21:12:00,
2013-04-20 17:22:00,52.0,45.0,29.81,South,191,6.0,9.0,76,0.00,,,-99.99,,2013-04-20 21:22:00,
2013-04-20 17:33:00,52.0,45.0,29.81,West,272,2.0,11.0,77,0.00,,,-99.99,,2013-04-20 21:33:00,
2013-04-20 17:43:00,52.0,45.0,29.81,West,272,2.0,11.0,77,0.00,,,-99.99,,2013-04-20 21:43:00,
2013-04-20 17:53:00,52.0,45.0,29.82,West,274,4.0,8.0,76,0.00,,,-99.99,,2013-04-20 21:53:00,
2013-04-20 18:03:00,53.0,45.0,29.83,SSW,209,0.0,8.0,75,0.00,,,-99.99,,2013-04-20 22:03:00,
2013-04-20 18:12:00,53.0,45.0,29.83,SSW,209,0.0,8.0,75,0.00,,,-99.99,,2013-04-20 22:12:00,
2013-04-20 18:23:00,52.0,44.0,29.84,NNW,339,0.0,10.0,75,0.00,,,-99.99,,2013-04-20 22:23:00,
2013-04-20 18:32:00,51.0,44.0,29.85,West,270,0.0,5.0,76,0.00,,,-99.99,,2013-04-20 22:32:00,
2013-04-20 18:42:00,51.0,44.0,29.85,West,270,0.0,5.0,76,0.00,,,-99.99,,2013-04-20 22:42:00,
2013-04-20 18:52:00,50.0,44.0,29.86,WNW,302,0.0,6.0,80,0.00,,,-99.99,,2013-04-20 22:52:00,
2013-04-20 19:02:00,49.0,43.0,29.86,South,184,0.0,4.0,80,0.00,,,-99.99,,2013-04-20 23:02:00,
2013-04-20 19:12:00,49.0,43.0,29.86,South,184,0.0,4.0,80,0.00,,,-99.99,,2013-04-20 23:12:00,
2013-04-20 19:22:00,49.0,44.0,29.88,WNW,292,0.0,2.0,82,0.00,,,-99.99,,2013-04-20 23:22:00,
2013-04-20 19:32:00,47.0,42.0,29.89,WSW,239,0.0,1.0,83,0.00,,,-99.99,,2013-04-20 23:32:00,
2013-04-20 19:42:00,47.0,42.0,29.89,WSW,239,0.0,1.0,83,0.00,,,-99.99,,2013-04-20 23:42:00,
2013-04-20 19:53:00,47.0,42.0,29.90,SW,216,0.0,2.0,84,0.00,,,-99.99,,2013-04-20 23:53:00,
2013-04-20 20:01:00,46.0,42.0,29.92,SW,233,0.0,1.0,86,0.00,,,-99.99,,2013-04-21 00:01:00,
2013-04-20 20:12:00,46.0,42.0,29.92,SW,233,0.0,1.0,86,0.00,,,-99.99,,2013-04-21 00:12:00,
2013-04-20 20:22:00,44.0,40.0,29.92,SW,233,0.0,0.0,87,0.00,,,-99.99,,2013-04-21 00:22:00,
2013-04-20 20:32:00,44.0,41.0,29.93,SW,233,0.0,0.0,88,0.00,,,-99.99,,2013-04-21 00:32:00,
2013-04-20 20:42:00,44.0,41.0,29.93,SW,233,0.0,0.0,88,0.00,,,-99.99,,2013-04-21 00:42:00,
2013-04-20 20:52:00,43.0,40.0,29.93,SW,233,0.0,0.0,89,0.00,,,-99.99,,2013-04-21 00:52:00,
2013-04-20 21:01:00,43.0,40.0,29.95,SW,233,0.0,1.0,90,0.00,,,-99.99,,2013-04-21 01:01:00,
2013-04-20 21:12:00,43.0,40.0,29.95,SW,233,0.0,1.0,90,0.00,,,-99.99,,2013-04-21 01:12:00,
2013-04-20 21:21:00,43.0,40.0,29.95,West,272,0.0,4.0,90,0.00,,,-99.99,,2013-04-21 01:21:00,
2013-04-20 21:32:00,43.0,40.0,29.96,West,270,0.0,2.0,90,0.00,,,-99.99,,2013-04-21 01:32:00,
2013-04-20 21:42:00,43.0,40.0,29.96,West,270,0.0,2.0,90,0.00,,,-99.99,,2013-04-21 01:42:00,
2013-04-20 21:52:00,44.0,41.0,29.97,WNW,284,0.0,4.0,88,0.00,,,-99.99,,2013-04-21 01:52:00,
2013-04-20 22:02:00,44.0,41.0,29.98,West,270,0.0,2.0,88,0.00,,,-99.99,,2013-04-21 02:02:00,
2013-04-20 22:11:00,44.0,41.0,29.98,West,270,0.0,2.0,88,0.00,,,-99.99,,2013-04-21 02:11:00,
2013-04-20 22:22:00,44.0,40.0,29.99,WSW,252,0.0,2.0,87,0.00,,,-99.99,,2013-04-21 02:22:00,
2013-04-20 22:32:00,44.0,40.0,30.01,NNW,338,4.0,7.0,85,0.00,,,-99.99,,2013-04-21 02:32:00,
2013-04-20 22:42:00,44.0,40.0,30.01,NNW,338,4.0,7.0,85,0.00,,,-99.99,,2013-04-21 02:42:00,
2013-04-20 22:52:00,45.0,37.0,30.02,NW,304,5.0,13.0,74,0.00,,,-99.99,,2013-04-21 02:52:00,
2013-04-20 23:01:00,45.0,36.0,30.03,NNW,329,3.0,8.0,71,0.00,,,-99.99,,2013-04-21 03:01:00,
2013-04-20 23:11:00,45.0,36.0,30.03,NNW,329,3.0,8.0,71,0.00,,,-99.99,,2013-04-21 03:11:00,
2013-04-20 23:22:00,45.0,35.0,30.04,NW,307,4.0,8.0,69,0.00,,,-99.99,,2013-04-21 03:22:00,
2013-04-20 23:33:00,45.0,34.0,30.05,WNW,299,2.0,11.0,66,0.00,,,-99.99,,2013-04-21 03:33:00,
2013-04-20 23:42:00,45.0,34.0,30.05,WNW,299,2.0,11.0,66,0.00,,,-99.99,,2013-04-21 03:42:00,
2013-04-20 23:53:00,44.0,32.0,30.06,NW,320,5.0,18.0,62,0.00,,,-99.99,,2013-04-21 03:53:00,